Wind_Speed
39 39 39 38 38 38 39 39 38 38 39 39 39 39 39 39 40 40 40 40 40 40 39 39 38 37 36 36 35 34 32 31 30 30 29 28 27 26 26 25 24 23 22 21 21 20 20 20 20 20 20 20 20 21 21 22 23 23 24 25 25 25 25 25 25 25 25 25 25 25 25 24 24 24 24 23 23 23 23 23 23 22 22 21 21 21
39 39 38 38 38 38 39 39 38 38 38 38 38 38 39 39 39 39 39 39 39 39 39 38 38 37 36 35 34 33 32 31 30 30 29 28 27 26 25 24 23 22 21 20 20 20 20 19 19 20 20 20 21 21 22 23 24 24 25 25 25 25 25 25 25 25 25 25 25 25 25 24 24 24 24 24 24 23 23 23 23 23 22 22 22 22
38 38 38 38 38 38 39 39 38 38 38 38 38 38 38 39 39 39 38 38 38 38 38 38 37 36 35 35 34 33 32 31 30 29 29 28 26 25 24 23 21 20 20 20 19 19 19 19 19 20 20 21 22 23 23 24 25 25 25 25 25 25 25 25 25 25 25 25 25 25 25 25 25 24 24 24 24 24 24 23 23 23 23 23 22 22
38 38 38 38 38 38 38 38 38 38 38 38 38 38 39 39 39 38 38 37 37 37 37 37 36 36 35 34 34 33 32 31 30 29 28 27 25 24 22 21 20 19 19 19 19 19 19 19 19 20 21 22 23 24 24 25 25 25 25 25 25 25 25 25 25 25 25 25 24 24 24 25 25 25 24 24 24 24 24 24 24 23 23 23 23 22
37 37 38 38 38 38 38 38 38 38 38 38 39 39 39 39 39 38 37 36 36 36 36 36 36 35 35 34 34 33 32 31 29 28 27 25 23 22 20 19 19 19 18 18 18 19 19 19 20 21 22 23 24 25 25 25 25 25 25 25 25 25 25 25 25 24 24 24 24 24 24 24 24 25 24 24 24 24 24 24 24 24 23 23 23 23
37 37 37 38 38 38 38 38 38 38 38 39 40 40 40 40 39 38 37 36 36 36 36 36 35 35 34 34 33 32 31 30 28 27 25 23 22 20 19 18 18 18 18 18 18 19 19 20 21 22 23 24 25 25 25 25 25 25 25 25 25 25 25 24 24 24 24 24 24 24 24 24 24 24 24 24 24 24 24 24 24 24 23 23 23 23
37 37 37 37 38 38 38 38 38 38 39 40 41 41 41 40 39 37 36 36 36 36 36 36 35 34 34 33 32 30 29 28 26 25 23 21 20 18 18 17 18 18 18 18 19 20 21 22 23 24 24 25 25 25 25 25 25 25 25 24 24 24 24 24 24 24 24 24 24 24 24 24 24 24 24 24 24 24 24 24 24 24 23 23 23 23
37 37 37 37 38 38 38 38 38 38 39 41 42 42 41 40 38 37 36 36 36 36 36 35 34 33 32 30 29 28 27 26 24 22 21 19 18 17 17 17 17 18 18 19 20 21 22 23 24 24 25 25 25 25 24 24 24 24 24 24 24 24 24 24 24 24 24 24 24 24 24 23 23 24 24 24 24 24 24 24 23 23 23 23 23 23
37 37 37 37 37 38 38 38 38 38 40 41 42 42 41 40 38 36 35 35 35 34 34 33 32 30 29 28 27 26 25 24 22 20 19 18 17 17 17 17 18 18 19 20 21 22 23 24 24 24 24 24 24 24 24 24 24 24 24 24 24 24 24 24 24 24 24 24 24 23 23 23 23 23 23 23 23 23 23 23 23 23 23 23 23 23
36 37 37 37 37 37 37 38 38 39 40 41 42 41 40 38 37 35 34 33 32 31 31 30 29 28 27 26 25 24 23 21 20 19 17 17 16 16 17 18 18 19 20 21 23 23 24 24 24 24 24 24 24 24 24 24 24 24 24 24 24 24 24 24 24 24 24 24 24 24 24 24 24 23 24 24 23 23 23 23 23 23 23 23 23 23
37 37 37 37 37 37 37 37 38 39 40 41 41 40 38 36 34 33 32 31 30 29 28 27 27 26 26 25 24 22 21 19 18 17 17 16 16 17 17 18 20 21 22 23 23 24 24 24 24 24 24 24 24 24 24 24 24 24 24 24 25 25 24 24 24 24 24 24 24 24 24 24 24 24 24 24 24 24 24 24 24 23 23 23 23 23
36 36 37 37 37 37 37 37 38 39 40 40 40 38 36 34 32 30 29 28 27 27 27 27 26 26 25 23 22 20 19 17 17 16 16 16 17 17 18 20 21 22 23 23 24 24 24 24 24 24 24 24 24 24 24 24 24 24 24 25 25 25 25 25 25 25 25 25 25 24 24 24 24 24 24 24 24 24 24 24 24 24 24 24 24 24
36 36 37 37 37 37 37 37 38 39 39 39 38 36 34 32 30 28 27 26 26 26 27 26 26 25 23 22 20 18 17 16 16 16 16 16 17 18 19 21 22 23 23 23 24 24 24 24 24 24 24 24 24 24 24 24 24 25 25 25 25 25 25 25 25 25 25 25 25 25 25 25 25 25 25 25 25 25 24 24 24 24 24 24 24 24
36 36 36 36 36 36 36 37 38 39 39 38 36 34 33 30 28 27 26 26 26 27 27 26 25 23 21 20 18 17 16 15 16 16 16 17 18 19 21 22 23 23 23 23 23 23 23 23 23 24 24 24 24 24 24 24 25 25 25 25 25 25 26 26 26 26 26 26 26 26 26 26 26 25 25 25 25 25 25 25 25 25 25 25 25 25
36 36 36 36 36 36 36 36 37 38 38 36 35 33 31 29 27 26 26 26 26 27 26 25 23 21 19 18 16 16 15 15 16 16 17 18 19 21 22 22 23 23 23 23 23 23 23 23 23 24 24 24 24 24 25 25 25 25 26 26 26 26 26 26 26 26 26 26 26 26 26 26 26 26 26 26 26 26 26 26 26 26 26 26 26 26
36 35 35 35 36 36 36 36 37 37 37 35 34 32 30 28 27 26 26 26 26 26 25 23 21 19 17 16 15 15 15 16 16 17 18 19 20 21 22 22 22 22 22 22 23 23 23 23 23 24 24 24 25 25 25 25 26 26 26 26 26 27 27 27 27 27 27 27 27 27 27 27 27 27 27 27 27 27 27 27 27 27 27 27 27 27
35 35 35 35 35 36 36 36 36 36 36 35 33 31 29 28 27 27 27 27 26 25 23 21 19 17 16 15 15 15 16 16 17 18 19 20 21 22 22 22 22 22 22 22 22 22 23 23 23 24 24 25 25 25 26 26 26 26 27 27 27 27 27 27 28 28 28 28 28 28 28 28 27 27 27 27 27 27 27 27 28 28 28 28 28 28
35 35 35 35 35 35 36 36 36 36 36 34 32 30 29 28 28 28 28 27 26 24 21 19 17 16 15 15 15 16 17 18 18 19 20 21 21 21 21 21 21 21 22 22 22 22 23 23 24 24 25 25 25 26 26 26 27 27 27 27 27 28 28 28 28 28 28 28 28 28 28 28 28 28 28 28 28 28 28 28 28 28 28 28 28 29
35 35 35 35 35 35 35 36 36 36 36 34 32 30 29 29 30 30 29 27 25 22 19 17 16 15 15 15 16 17 18 19 19 20 20 21 21 21 21 21 21 21 21 22 22 22 23 23 24 24 25 25 26 26 26 27 27 27 27 27 28 28 28 28 28 28 29 29 29 29 29 29 29 29 29 29 29 29 29 29 29 29 29 29 29 29
35 35 35 35 35 35 35 36 36 36 35 34 32 30 30 31 31 31 29 26 23 20 18 16 15 15 15 16 17 18 19 19 20 20 20 20 20 20 20 21 21 21 21 22 22 22 23 24 24 24 25 25 26 26 26 26 27 27 27 27 28 28 28 28 28 29 29 29 29 29 29 29 29 29 29 29 29 29 29 29 29 29 30 30 30 30
35 35 34 34 35 35 36 36 36 36 35 33 32 31 31 32 32 30 27 24 21 18 17 15 15 15 16 17 17 18 19 20 20 20 20 20 20 20 20 21 21 21 21 22 22 23 23 24 24 24 25 25 25 26 26 26 26 27 27 27 27 28 28 28 28 28 28 29 29 29 29 29 29 29 29 29 29 29 29 29 30 30 30 30 30 30
34 34 34 34 34 35 36 37 37 36 35 33 32 32 33 33 31 28 25 21 19 17 15 15 15 16 17 18 18 19 19 20 20 19 19 19 20 20 20 21 21 21 22 22 22 23 23 23 24 24 25 25 25 25 26 26 26 26 27 27 27 27 27 28 28 28 28 28 28 28 29 29 29 29 29 29 29 29 29 29 30 30 30 30 30 30
34 33 33 34 34 35 36 37 37 36 34 32 32 33 33 32 29 25 22 19 17 15 15 15 16 17 18 18 19 19 19 19 19 19 19 19 20 20 21 21 21 21 21 22 22 23 23 23 24 24 24 25 25 25 25 26 26 26 26 26 27 27 27 27 27 27 27 27 27 28 28 28 28 28 28 29 29 29 29 29 29 29 29 29 29 29
32 32 33 33 35 36 37 36 35 33 31 31 32 33 33 31 27 23 19 17 16 15 15 16 17 18 18 19 19 19 19 19 19 19 19 19 20 20 20 21 21 21 21 21 22 22 23 23 23 24 24 24 25 25 25 25 26 26 26 26 26 26 26 27 27 27 27 27 27 27 27 27 27 27 28 28 28 28 28 28 28 28 29 29 29 29
31 32 32 34 35 35 34 33 31 29 29 31 33 33 31 28 23 20 18 16 15 15 16 17 18 18 19 19 19 19 19 19 19 19 19 19 20 20 20 21 21 21 21 21 22 22 23 23 23 24 24 24 25 25 25 25 26 26 26 26 26 26 26 26 26 26 26 26 26 27 27 27 27 27 27 27 27 27 27 28 28 28 28 29 29 29
31 31 32 33 33 31 29 27 27 27 30 32 33 31 28 24 20 18 16 16 16 16 17 18 18 19 19 19 19 19 19 19 19 19 19 19 19 20 20 20 21 21 21 21 22 22 23 23 23 24 24 24 25 25 25 25 26 26 26 26 26 26 26 26 26 26 26 26 26 26 26 26 26 27 27 27 27 27 27 28 28 28 29 29 29 29
30 31 31 30 29 27 25 26 27 29 31 32 30 27 24 21 18 17 16 16 16 17 18 18 19 19 19 19 19 19 19 19 19 19 19 19 19 20 20 20 21 21 21 21 22 22 23 23 23 24 24 24 25 25 25 26 26 26 26 26 27 27 27 27 27 27 27 27 27 27 27 27 27 27 27 27 27 27 28 28 28 29 29 30 30 30
29 29 28 27 25 25 26 28 30 31 31 29 26 23 20 19 17 16 16 16 17 18 18 18 19 19 19 19 19 19 19 19 19 19 19 19 19 19 20 20 21 21 21 22 22 22 22 23 23 24 24 25 25 25 26 26 26 27 27 27 27 27 27 27 27 27 27 27 27 27 27 27 27 27 28 28 28 28 28 29 29 29 30 30 30 30
28 27 25 24 25 26 29 31 31 30 28 25 22 20 19 17 17 17 17 17 17 18 18 18 18 18 19 19 19 19 19 19 19 19 19 19 19 20 20 21 21 21 21 22 22 22 23 23 24 24 25 25 26 26 26 27 27 27 27 28 28 28 28 28 28 28 28 28 28 28 28 28 28 28 28 28 28 29 29 29 29 30 30 30 30 30
26 25 25 26 27 30 31 31 29 27 24 22 20 19 18 17 17 17 17 17 18 18 18 18 18 19 19 19 19 19 19 19 20 20 20 20 20 20 20 21 21 21 22 22 22 22 23 23 24 25 25 26 26 27 27 27 28 28 28 28 28 29 29 29 29 29 28 29 28 29 29 29 29 29 29 29 29 29 29 29 30 30 30 30 30 30
25 25 27 29 30 31 31 29 27 24 22 20 19 18 18 17 17 17 17 17 18 18 18 18 18 19 19 19 19 19 19 19 20 20 20 20 20 20 21 21 22 22 22 23 23 23 23 24 25 25 26 27 27 27 28 28 28 29 29 29 29 29 30 30 30 30 30 30 30 30 30 30 30 30 30 30 30 30 30 30 30 30 30 30 30 30
25 27 29 31 31 31 29 27 25 22 20 19 18 18 18 17 17 17 17 18 18 18 18 19 19 19 19 19 20 20 20 20 20 20 20 20 20 21 21 22 22 22 23 23 24 24 24 25 25 26 27 27 28 28 29 29 29 30 30 30 30 31 31 31 31 31 31 31 31 31 31 31 31 31 31 31 31 30 30 30 30 30 30 30 30 30
27 29 31 31 30 29 27 25 23 21 20 19 18 18 18 18 18 18 18 18 18 18 19 19 19 19 19 20 20 20 20 20 20 20 21 21 21 21 22 22 23 23 24 24 25 25 25 26 26 27 27 28 29 29 30 30 30 31 31 31 32 32 32 32 32 32 32 32 32 32 32 32 32 32 32 32 31 31 31 31 31 31 31 31 30 30
28 31 31 31 29 27 25 23 21 20 19 18 18 18 18 18 18 18 18 18 19 19 19 19 19 20 20 20 20 20 20 20 20 21 21 22 22 22 23 23 24 24 25 25 25 26 26 27 27 28 28 29 29 30 31 31 31 32 32 32 33 33 33 33 33 33 33 33 34 34 34 34 34 33 33 33 33 32 32 32 32 32 32 31 31 31
30 31 31 30 27 25 23 22 21 19 19 18 18 18 18 18 18 18 19 19 19 19 19 20 20 20 20 20 20 20 20 21 21 21 22 22 23 23 24 24 25 25 26 26 27 27 27 28 28 29 29 30 30 31 32 32 32 33 33 33 34 34 34 34 34 34 34 35 35 35 35 35 35 35 35 34 34 34 34 33 33 33 33 33 32 32
32 32 31 29 26 24 22 21 20 19 19 18 18 18 18 18 19 19 19 19 19 20 20 20 20 20 20 20 20 21 21 21 22 22 23 23 24 24 25 25 26 26 27 27 28 28 29 29 29 30 30 31 31 32 33 33 34 34 34 34 35 35 35 35 35 35 36 36 36 36 36 36 36 36 36 36 36 35 35 35 35 34 34 34 34 33
32 31 30 27 25 23 22 21 20 19 19 18 18 18 19 19 19 19 19 20 20 20 20 20 20 20 21 21 21 21 21 22 22 23 23 24 25 25 26 26 27 27 28 28 29 29 30 30 31 31 32 32 32 33 33 34 34 35 35 35 36 36 36 36 36 37 37 37 37 37 37 38 38 37 37 37 37 37 37 36 36 36 36 35 35 35
32 30 28 26 24 22 21 20 19 19 19 19 19 19 19 19 19 20 20 20 20 21 21 21 21 21 21 21 21 22 22 22 23 24 24 25 26 26 27 28 28 29 29 30 30 31 31 32 32 32 33 33 34 34 34 35 35 36 36 36 36 37 37 37 37 38 38 38 38 38 38 38 38 38 38 38 38 38 38 38 38 38 38 37 37 36
30 28 26 24 23 21 20 20 19 19 19 19 19 19 19 20 20 20 20 21 21 21 21 21 21 21 21 22 22 22 23 23 24 24 25 26 27 27 28 29 29 30 30 31 32 32 33 33 33 34 34 34 35 35 35 36 36 37 37 37 37 38 38 38 38 39 39 39 39 39 39 39 39 39 39 39 39 39 39 39 39 39 39 39 39 38
28 26 24 23 22 21 20 20 19 19 19 19 19 20 20 20 20 20 21 21 21 22 22 22 22 22 22 22 22 23 23 24 25 25 26 27 28 29 29 30 30 31 32 32 33 34 34 35 35 35 36 36 36 36 36 37 37 37 38 38 38 38 39 39 39 40 40 40 40 40 40 40 40 40 40 40 40 40 40 40 40 40 40 40 40 40
26 24 23 22 21 21 20 20 19 19 19 19 20 20 20 20 21 21 21 22 22 22 22 22 22 22 23 23 23 24 24 25 26 27 27 28 29 30 30 31 32 32 33 34 34 35 36 36 36 37 37 37 37 38 38 38 38 38 38 39 39 39 39 40 40 40 41 41 41 41 41 41 41 41 40 40 40 40 40 41 41 41 41 41 41 41
25 23 22 21 21 20 20 20 19 19 19 20 20 20 20 21 21 22 22 22 22 23 23 23 23 23 23 23 24 24 25 26 27 28 28 29 30 31 31 32 33 34 35 35 36 36 37 38 38 38 39 39 39 39 39 39 39 39 39 39 40 40 40 40 41 41 41 42 42 42 42 42 41 41 41 41 41 41 41 41 41 42 42 42 42 41
23 22 21 21 20 20 20 19 19 20 20 20 20 21 21 21 22 22 22 23 23 23 24 24 24 24 24 24 25 25 26 27 28 29 30 30 31 32 33 33 34 35 36 37 37 38 38 39 39 40 40 40 40 40 40 40 40 40 40 40 40 40 40 41 41 42 42 42 42 42 42 42 42 42 42 41 41 41 41 42 42 42 42 42 42 42
22 21 21 20 20 20 20 20 20 20 20 20 21 21 21 22 22 23 23 24 24 24 24 24 24 24 25 25 25 26 27 28 29 30 30 31 32 33 34 35 35 36 37 38 38 39 40 40 40 41 41 42 42 42 42 42 42 42 41 41 41 41 41 41 42 42 42 42 42 42 42 42 42 42 42 41 41 42 42 42 43 43 43 42 42 42
22 21 21 20 20 20 20 20 20 20 21 21 21 22 22 23 23 24 24 24 24 25 25 25 25 25 25 26 26 27 28 29 29 30 31 32 33 34 35 36 36 37 38 39 40 40 41 41 41 42 42 43 43 43 43 43 43 43 43 42 42 42 42 42 43 43 43 42 42 42 42 42 42 42 42 42 42 42 42 42 43 43 42 42 41 41
21 21 20 20 20 20 20 20 21 21 21 21 22 22 23 23 24 24 25 25 25 25 25 26 26 26 26 27 27 28 29 29 30 31 32 33 34 35 36 37 37 38 39 40 40 41 42 42 42 43 43 43 44 44 44 44 44 44 43 43 43 43 43 43 43 43 43 43 42 42 42 42 42 42 42 42 42 42 42 42 42 42 41 41 41 40
21 21 21 21 21 21 21 21 21 21 22 22 22 23 24 24 25 25 25 26 26 26 26 26 27 27 28 28 28 29 29 30 31 32 33 34 35 36 37 38 38 39 40 41 41 42 42 42 43 43 43 43 44 44 44 44 44 44 43 43 43 43 43 43 43 43 43 43 42 42 42 41 41 41 41 41 42 41 41 41 41 41 41 41 41 41
21 21 21 21 21 21 21 21 22 22 22 23 23 24 24 25 25 26 26 26 26 27 27 27 28 28 28 29 29 29 30 30 31 32 33 35 36 37 38 39 40 40 41 41 42 42 42 43 43 43 43 43 43 44 44 44 44 43 43 43 43 43 43 43 43 43 43 42 42 42 41 41 41 41 41 41 42 42 41 41 41 41 41 42 42 42
22 22 21 21 21 22 22 22 22 23 23 23 24 24 25 25 26 26 26 26 27 27 27 28 28 28 29 29 29 30 31 31 32 33 34 35 36 38 39 40 40 41 42 42 42 43 43 43 43 43 43 43 43 43 43 43 43 43 42 42 42 42 42 42 42 42 42 42 41 41 41 41 41 41 41 42 42 42 43 43 43 43 43 43 43 43
22 22 22 22 22 22 22 22 23 23 23 24 24 25 25 25 26 26 26 27 27 27 28 28 28 29 29 29 30 31 31 32 33 34 35 36 37 38 39 40 41 42 42 42 42 42 42 42 42 42 42 42 42 42 42 42 42 41 41 41 41 41 41 41 41 40 40 40 40 40 40 40 40 40 41 42 42 43 43 44 44 44 44 43 43 43
22 22 22 22 22 22 22 23 23 23 24 24 24 25 25 25 26 26 26 27 27 27 28 28 28 29 29 30 31 32 32 33 34 35 36 37 38 39 40 40 41 42 42 42 42 42 41 41 41 42 42 42 41 41 41 40 40 40 40 39 39 39 39 39 38 38 38 37 37 37 38 38 38 39 39 40 41 42 42 42 43 43 42 42 42 42
Wind_Direction
289 289 289 290 290 291 292 293 294 295 295 297 297 297 297 297 296 296 295 295 294 295 295 296 297 298 299 300 300 299 297 294 291 288 286 285 284 283 282 281 281 281 281 280 280 280 281 281 282 282 283 284 284 286 287 288 289 290 291 291 291 292 292 292 292 292 292 291 291 291 290 290 289 289 289 289 289 288 288 288 287 286 285 284 283 281
288 288 288 289 290 291 292 293 294 295 296 297 297 298 297 297 296 295 295 294 294 295 295 296 296 297 298 298 298 297 295 292 289 286 284 283 282 281 280 280 279 279 279 279 279 279 280 280 281 281 282 283 284 286 287 288 289 290 290 291 291 291 291 291 291 291 291 290 290 289 289 289 289 289 289 289 288 288 288 287 287 286 285 284 283 282
288 288 288 288 289 290 291 293 294 295 296 297 298 298 298 297 297 296 296 296 296 296 296 296 296 296 297 297 296 295 293 290 287 284 283 281 280 279 279 278 278 278 278 278 278 278 279 280 280 281 282 284 285 287 288 289 289 290 290 290 290 290 291 291 290 290 289 289 289 288 288 288 288 288 289 288 288 288 288 287 287 286 285 284 283 282
286 286 287 288 289 290 291 293 295 296 297 298 299 299 298 298 297 297 297 297 297 298 298 297 297 296 296 296 295 293 291 288 285 282 281 280 279 278 277 277 276 276 276 276 277 277 278 279 280 282 283 285 286 287 288 289 289 289 290 290 290 290 290 290 289 289 289 288 288 288 288 288 288 288 288 288 288 288 288 287 287 286 285 284 283 282
285 285 286 288 289 290 291 293 296 297 299 300 300 300 300 299 298 297 297 297 298 298 298 298 297 296 296 295 294 291 289 286 283 280 279 278 277 276 275 275 275 274 275 275 276 277 278 279 281 283 284 285 287 287 288 288 288 289 289 289 289 289 289 289 289 288 288 288 287 287 288 288 288 288 288 289 288 288 288 287 286 286 285 284 283 282
285 285 286 288 289 291 292 295 297 299 300 301 301 301 301 300 298 297 297 297 297 297 297 297 297 296 295 294 292 289 286 283 280 278 277 276 275 274 274 273 273 273 274 274 275 277 278 280 282 284 285 286 287 287 288 288 288 288 289 289 289 289 289 288 288 288 288 288 287 288 288 288 288 289 289 289 289 288 288 287 287 286 285 284 283 282
285 286 287 288 289 291 293 296 298 300 301 301 302 302 302 300 299 297 296 295 295 296 296 296 296 295 294 292 289 286 283 280 278 276 275 274 273 272 272 272 272 272 273 275 276 278 280 282 284 285 286 287 288 288 288 288 288 289 289 289 289 289 289 288 288 288 288 288 288 288 288 288 289 289 289 289 288 288 288 288 287 286 285 284 283 282
285 286 287 288 290 292 294 296 298 300 301 302 302 302 302 301 298 296 295 294 294 295 296 296 295 294 292 289 286 283 279 277 275 274 273 272 271 271 271 271 271 272 274 276 278 280 282 284 286 287 287 288 288 288 288 289 289 289 289 289 289 289 289 289 289 288 288 288 288 288 289 289 289 289 289 289 289 288 288 287 287 286 286 285 284 283
284 285 287 288 290 292 294 296 298 299 301 302 302 302 302 300 297 295 293 293 294 295 295 295 294 292 289 286 282 279 276 274 272 271 270 270 270 270 270 271 271 273 275 278 280 283 284 286 287 288 288 288 288 289 289 289 289 290 290 290 290 290 289 289 289 289 289 289 289 289 289 289 289 289 289 289 288 288 288 287 287 286 285 285 284 283
283 284 286 288 290 292 294 296 297 299 301 302 302 302 301 299 296 294 293 293 293 294 294 293 291 289 286 282 278 275 273 271 270 269 268 269 269 269 270 271 273 275 278 281 283 285 287 287 288 288 289 289 289 289 289 289 290 290 290 290 290 290 290 289 289 289 289 289 289 289 289 289 289 289 289 288 288 288 287 287 286 286 285 284 284 283
283 284 285 287 289 291 293 295 297 299 300 301 301 300 299 297 295 294 293 293 293 293 292 291 288 285 281 277 274 272 270 268 267 267 268 269 269 270 272 274 276 279 281 284 285 287 288 288 288 289 289 289 289 289 290 290 290 291 291 290 290 290 290 290 290 290 289 290 289 290 289 289 289 289 288 288 288 287 287 286 285 285 285 284 283 283
282 283 284 286 288 290 292 294 296 298 299 300 300 300 298 296 294 293 292 292 292 291 289 286 283 280 276 273 270 268 266 266 266 267 268 269 271 272 274 276 279 282 284 286 287 288 288 289 289 289 289 289 290 290 291 291 291 291 291 290 290 290 290 290 290 290 290 290 290 290 290 289 289 289 288 288 287 287 286 286 285 285 284 284 283 282
281 282 283 285 287 289 291 293 295 297 298 300 300 300 298 296 293 291 290 290 289 287 284 281 278 274 271 269 266 264 264 265 266 267 269 270 272 274 277 279 282 284 285 287 288 288 288 289 289 289 289 290 290 291 291 291 291 291 291 290 290 290 290 290 290 290 290 290 290 290 290 289 289 289 288 288 287 287 286 285 285 284 284 283 283 282
280 281 283 284 286 288 290 292 294 296 299 300 300 299 297 294 291 289 287 286 284 281 278 276 273 269 266 264 262 262 263 264 266 268 269 272 274 276 279 281 283 285 286 287 288 288 288 289 289 289 290 290 291 291 291 291 291 291 291 290 290 290 290 290 290 290 290 290 290 290 289 289 289 288 288 287 287 286 286 285 285 284 283 283 283 282
279 281 282 284 285 287 288 290 293 296 298 299 299 298 295 291 288 285 283 281 279 276 274 271 268 264 261 260 260 261 263 265 267 269 271 273 276 278 281 282 284 285 286 287 287 288 288 289 289 290 290 291 291 291 291 291 291 290 290 290 290 290 290 290 290 290 290 289 289 289 289 288 288 287 287 286 286 285 285 285 284 284 283 283 283 282
279 280 281 283 284 285 287 288 291 293 296 297 297 295 292 289 286 283 281 278 276 273 270 266 262 259 258 258 260 262 264 266 268 270 273 275 278 280 282 283 284 285 286 286 287 288 288 289 290 290 291 291 291 291 291 291 290 290 290 290 290 290 290 290 289 289 289 289 288 288 288 287 287 286 286 286 285 285 284 284 284 283 283 283 282 282
278 279 280 282 283 284 285 287 288 291 293 294 294 293 290 287 285 283 280 277 273 270 265 261 257 256 256 258 261 263 265 267 270 272 275 277 279 281 282 283 284 285 285 286 286 287 288 289 289 290 290 291 291 291 291 291 290 290 290 290 290 290 290 290 289 289 289 288 288 287 287 286 286 286 285 285 285 284 284 284 283 283 283 282 282 282
278 279 280 281 282 283 284 285 286 288 290 291 291 290 288 287 285 282 279 274 270 265 260 257 255 255 256 259 262 265 268 270 272 275 277 279 280 281 282 283 283 284 284 285 286 287 288 289 289 290 290 290 291 291 291 291 291 291 291 291 291 291 290 290 290 289 289 288 288 287 287 286 286 285 285 284 284 284 283 283 283 283 283 282 282 282
277 278 279 280 281 282 283 284 285 286 287 289 289 288 288 286 284 281 276 270 265 260 256 254 254 256 258 261 264 267 270 272 275 277 278 280 280 281 282 282 283 283 284 285 286 287 288 289 289 290 291 291 291 292 292 292 292 292 292 292 292 292 291 291 291 290 290 289 288 288 287 287 286 285 285 284 284 284 283 283 283 283 282 282 282 282
277 278 279 280 281 281 282 282 283 284 286 287 287 286 286 285 281 277 271 265 259 255 253 253 255 258 261 264 267 270 272 274 276 277 279 279 280 281 281 282 283 284 285 286 287 288 289 289 290 291 292 292 292 293 293 293 294 293 293 293 293 293 292 292 291 291 291 290 289 288 288 287 286 286 285 285 284 284 284 283 283 283 283 282 282 282
277 278 278 279 280 280 281 281 282 283 284 285 284 284 284 282 278 271 264 258 253 251 251 254 257 261 264 266 269 271 274 275 276 277 278 279 279 280 281 282 283 284 286 287 288 289 290 291 292 292 293 293 294 294 294 294 294 294 294 294 294 293 293 293 292 292 291 291 290 289 288 288 287 286 286 285 285 284 284 284 283 283 283 282 282 282
277 278 278 279 279 280 280 280 281 282 282 282 281 281 281 278 272 265 257 252 249 249 252 256 259 263 266 268 270 272 274 275 276 277 277 278 279 280 281 282 284 285 287 288 289 291 291 292 293 294 294 294 295 295 295 295 295 295 295 295 294 294 294 293 293 293 292 291 291 290 289 288 288 287 287 286 286 285 285 284 284 284 283 283 283 282
277 278 278 279 279 279 280 280 281 280 279 278 278 278 277 273 266 257 251 247 247 250 254 258 261 264 267 268 270 271 272 273 274 275 276 277 279 280 282 283 285 286 288 289 290 291 292 293 294 294 295 295 295 295 296 296 296 295 295 295 295 295 295 294 294 293 293 292 291 291 290 289 288 288 287 287 287 286 286 285 285 285 284 284 283 283
277 278 279 279 280 281 281 281 280 278 276 275 275 275 272 266 258 250 246 245 247 251 255 259 262 264 266 268 269 270 270 272 273 274 275 277 278 280 282 284 285 287 288 289 291 291 292 293 294 294 295 295 296 296 296 296 296 296 296 296 296 296 295 295 295 294 293 293 292 291 290 290 289 288 288 288 287 287 286 286 286 285 285 284 283 283
277 278 279 281 282 282 282 281 279 276 274 274 273 270 264 257 249 244 242 244 248 252 256 259 261 263 265 266 267 268 269 270 272 273 275 277 278 280 282 284 285 287 288 290 290 291 292 293 294 295 295 296 296 297 297 297 297 297 297 296 296 296 296 296 295 295 294 293 293 292 291 290 290 289 288 288 288 287 287 286 286 285 285 284 284 283
277 279 280 282 283 283 281 279 277 276 274 272 268 262 254 247 241 239 241 245 249 252 256 258 261 263 264 265 267 268 269 270 272 273 275 277 278 280 282 284 285 287 288 290 290 291 292 293 294 295 296 297 297 297 297 297 297 297 297 297 297 296 296 296 296 295 295 294 293 292 292 291 290 289 289 288 288 287 287 286 286 285 285 284 284 283
277 279 281 282 281 280 280 279 278 275 272 267 260 253 245 239 237 238 242 246 249 253 256 258 261 263 264 266 267 268 269 270 272 273 275 277 279 281 283 284 285 287 289 290 291 292 293 294 295 296 297 297 298 298 298 298 298 298 297 297 297 296 296 296 296 295 295 294 293 293 292 291 290 290 289 288 288 287 287 286 286 285 285 284 284 284
278 280 281 280 280 280 279 278 276 271 266 259 251 244 238 236 236 240 243 247 250 253 256 259 261 263 265 266 267 268 269 271 272 274 276 277 280 281 283 284 286 287 289 290 292 293 294 295 297 297 298 298 299 298 299 298 298 298 297 297 297 296 296 295 295 295 294 294 293 293 292 291 291 290 290 289 289 288 287 287 286 286 285 285 284 284
278 280 280 280 280 279 278 275 270 264 257 249 242 237 235 236 239 242 245 249 252 255 257 260 261 263 264 265 267 268 270 271 273 274 276 278 280 282 284 285 286 288 290 292 293 295 296 297 298 299 299 299 299 299 299 299 298 298 297 297 296 296 295 295 294 294 294 293 293 292 292 291 291 291 290 290 289 289 288 288 287 286 286 285 285 284
279 280 280 280 279 276 273 269 263 256 248 242 237 236 237 239 242 245 248 251 253 256 258 259 261 262 263 264 266 267 269 271 273 275 277 279 281 283 285 286 288 290 291 293 294 296 297 299 299 300 300 300 300 300 300 299 299 298 297 297 296 295 295 294 294 293 293 292 292 292 291 291 291 290 290 290 289 289 289 288 287 287 286 286 285 285
279 280 280 278 275 272 267 261 254 247 241 237 236 237 239 242 245 248 250 252 254 256 257 258 260 261 262 264 265 267 269 272 274 276 278 280 282 284 286 287 289 291 293 294 295 296 298 299 300 300 300 300 300 300 300 299 299 298 297 296 296 295 295 294 293 293 292 292 291 291 291 291 291 290 290 290 290 289 289 288 288 287 287 286 286 285
278 279 278 275 271 266 259 252 246 241 237 235 237 239 242 245 247 250 251 253 254 255 256 258 259 260 262 264 266 268 270 272 275 277 279 281 283 285 287 289 290 292 294 296 297 298 299 299 300 300 301 301 300 300 300 299 299 298 297 297 296 295 295 294 293 292 292 291 291 290 290 290 290 290 290 290 289 289 288 288 287 287 286 286 286 285
278 277 275 271 265 259 251 245 240 236 235 236 238 241 244 247 249 250 252 253 254 255 256 257 259 260 262 264 266 269 271 273 275 277 280 282 284 286 288 290 292 293 295 296 298 299 299 300 300 301 301 301 301 300 300 300 299 298 297 296 296 295 294 294 293 292 291 291 290 290 289 289 289 289 289 289 289 288 287 287 286 286 286 286 285 285
276 274 271 266 259 252 245 240 237 235 236 238 240 243 246 248 250 251 252 253 254 255 257 258 260 261 264 266 268 270 272 274 276 278 280 283 285 287 289 291 293 294 296 297 298 299 300 301 301 301 301 301 301 301 300 300 299 298 297 296 296 295 294 293 293 292 291 290 290 289 289 288 288 288 288 288 287 287 286 286 285 285 285 285 285 285
273 270 266 260 253 246 241 237 236 236 237 239 242 245 247 249 251 252 253 253 255 256 257 259 261 263 265 266 268 270 273 275 277 280 282 284 287 289 290 292 294 295 296 297 298 299 300 300 301 301 301 301 301 300 300 299 299 298 297 296 295 295 294 293 292 291 290 290 289 288 288 287 287 287 287 286 286 286 285 285 284 284 284 284 284 284
269 265 260 253 247 242 238 236 236 237 239 241 243 246 248 250 251 252 253 254 256 257 259 260 262 264 266 268 269 271 274 276 279 282 284 287 289 290 292 293 295 296 297 298 299 299 300 300 301 301 301 301 300 300 300 299 298 297 297 296 295 294 293 293 292 291 290 289 288 288 287 287 286 286 286 285 285 285 284 284 284 283 283 284 284 284
264 259 253 247 242 238 236 236 236 238 240 242 244 246 248 250 251 252 254 255 256 258 260 261 263 265 267 269 271 273 276 279 281 284 286 288 291 292 293 295 296 297 298 298 299 300 300 301 301 301 301 301 300 299 299 298 298 297 296 295 294 293 293 292 291 290 289 288 287 287 287 286 286 285 285 285 284 284 284 283 283 283 283 283 283 283
258 252 246 241 238 236 235 236 237 239 241 243 245 247 249 250 251 253 254 256 257 259 261 262 264 266 268 270 273 275 278 281 283 286 288 290 292 294 295 296 297 298 299 299 300 300 300 300 301 301 301 300 300 299 298 298 297 296 295 295 294 293 292 291 290 289 289 288 287 287 286 286 286 285 285 285 284 284 284 283 283 282 282 282 282 282
252 246 240 237 235 234 235 236 238 240 242 244 246 247 249 250 252 253 255 256 258 260 262 264 265 267 269 272 274 277 280 282 285 287 290 292 294 295 296 297 298 299 300 300 300 300 300 300 300 300 300 300 299 299 298 297 296 296 295 294 294 293 292 291 290 289 288 288 287 286 286 286 285 285 285 285 284 284 284 283 283 282 282 281 281 281
245 240 236 234 234 234 235 237 239 241 243 245 247 248 250 251 253 254 256 257 259 261 263 264 266 268 271 273 276 279 282 284 287 289 291 293 295 296 297 298 299 300 300 300 301 301 301 301 301 301 300 300 299 299 298 297 297 296 295 294 293 292 292 291 290 289 288 288 287 286 286 286 285 285 285 285 284 284 284 284 283 283 282 282 281 281
240 236 233 233 234 235 237 239 241 243 245 247 248 250 251 253 254 256 257 259 260 262 264 266 268 270 273 275 278 281 284 286 289 291 292 294 296 297 298 299 300 300 300 300 301 301 301 301 301 301 300 300 300 299 298 298 297 296 295 294 293 292 292 291 290 289 288 288 287 286 286 285 285 284 284 284 284 284 284 284 284 284 283 283 282 281
235 233 232 233 234 236 238 241 243 245 246 248 250 251 253 254 256 257 259 260 262 263 265 267 269 272 275 278 281 284 286 288 290 292 293 295 296 298 299 300 300 301 301 300 300 301 301 301 301 301 300 300 299 299 298 298 297 297 296 294 294 293 292 291 290 289 288 287 287 286 285 285 284 284 284 283 283 283 284 284 284 284 284 284 283 282
233 232 233 234 236 238 240 242 245 246 248 250 251 253 254 256 258 259 260 262 263 265 267 269 272 275 277 281 283 286 288 290 291 293 294 296 297 298 299 300 300 300 301 300 300 301 301 301 301 301 301 300 300 299 299 298 298 297 296 295 294 293 292 291 290 289 288 287 287 286 285 285 284 284 283 283 283 283 283 284 284 284 284 284 284 283
233 233 234 236 238 240 242 244 246 248 250 251 253 255 256 258 259 261 262 264 266 268 270 272 275 278 280 283 285 287 288 290 292 294 295 297 298 298 299 300 300 300 301 300 300 301 301 301 301 301 301 300 300 299 299 299 298 297 297 295 294 293 291 290 290 289 288 287 286 285 285 284 284 284 284 283 283 283 283 284 284 284 284 284 284 284
234 235 236 238 240 242 244 246 248 249 251 253 254 256 258 260 261 263 264 266 268 270 272 275 277 280 282 284 286 287 289 291 293 294 296 297 298 298 299 299 300 300 300 301 301 301 301 301 301 301 301 300 300 300 299 299 299 298 297 296 294 293 292 291 290 289 288 287 286 285 285 284 284 284 284 284 284 284 284 284 284 284 284 284 284 284
236 237 239 240 242 244 245 247 249 251 252 254 256 257 259 261 263 264 266 268 270 272 275 277 279 281 283 285 287 288 290 292 294 295 296 297 298 298 299 299 300 300 300 301 301 301 301 301 301 301 301 300 300 300 299 299 299 298 297 296 295 293 292 291 290 289 288 287 286 285 284 284 284 284 284 284 284 284 284 284 284 284 284 284 284 284
238 239 240 242 243 244 246 248 249 251 253 254 256 258 259 261 263 265 267 269 272 274 276 279 281 283 285 287 288 290 292 293 294 295 296 297 298 298 299 299 300 300 300 301 301 301 301 301 301 301 301 301 300 300 299 299 299 298 297 296 295 294 293 291 290 290 288 287 286 285 284 284 284 284 284 284 284 284 284 284 285 285 284 284 284 284
239 240 242 243 244 245 246 248 249 251 252 254 256 258 260 262 264 266 269 271 274 276 278 281 283 285 286 288 290 291 292 294 295 295 296 297 298 298 299 299 300 300 300 301 301 301 301 301 301 301 301 301 301 300 300 299 299 298 298 297 296 295 294 293 292 291 289 288 287 285 284 284 283 283 284 284 284 285 285 285 285 285 285 285 285 285
241 242 243 244 245 246 247 248 249 251 253 254 256 258 261 263 266 268 271 274 276 279 281 283 285 286 288 289 290 292 293 294 295 296 296 297 298 299 299 300 300 300 301 301 301 301 301 301 301 301 301 301 301 300 300 300 299 299 298 298 297 296 295 294 293 293 291 290 289 287 286 285 284 283 284 284 285 285 285 285 285 285 285 285 285 285
242 243 244 245 246 247 248 250 251 253 254 256 258 261 263 266 269 271 274 277 279 281 283 285 286 287 288 290 291 292 293 294 295 296 297 298 298 299 299 300 300 300 301 301 301 302 302 302 302 301 301 301 301 301 300 300 300 299 299 298 298 297 296 296 295 295 294 293 291 290 288 287 285 285 285 285 285 286 286 286 286 286 286 286 286 285
243 244 245 247 248 249 250 252 253 255 257 259 262 264 267 269 272 275 277 279 281 283 284 286 287 288 289 290 292 293 294 295 296 297 298 299 299 299 300 300 300 301 301 302 302 302 303 302 302 302 301 301 301 301 301 301 300 300 299 299 299 298 298 297 297 297 296 295 293 292 290 289 288 287 287 287 287 288 288 288 288 288 288 287 287 286
Height
5716 5715 5714 5714 5714 5712 5710 5710 5709 5709 5707 5706 5706 5706 5705 5704 5703 5703 5702 5702 5701 5700 5700 5699 5699 5699 5698 5698 5697 5697 5696 5695 5695 5695 5694 5694 5694 5693 5693 5693 5693 5693 5693 5693 5693 5693 5693 5693 5693 5693 5693 5693 5693 5693 5692 5692 5692 5692 5692 5692 5691 5691 5691 5690 5690 5689 5689 5689 5688 5688 5687 5687 5687 5687 5687 5687 5687 5686 5686 5686 5686 5686 5686 5686 5686 5686
5713 5712 5712 5712 5711 5709 5708 5707 5707 5706 5705 5704 5703 5702 5702 5701 5700 5699 5699 5699 5698 5697 5697 5697 5696 5696 5695 5695 5694 5694 5693 5693 5692 5692 5692 5692 5692 5691 5691 5691 5691 5691 5691 5691 5691 5691 5691 5691 5691 5691 5691 5691 5691 5691 5691 5691 5691 5690 5690 5690 5689 5689 5689 5688 5688 5687 5687 5687 5687 5686 5686 5685 5685 5685 5685 5685 5684 5684 5684 5684 5684 5684 5684 5684 5684 5684
5711 5710 5709 5708 5707 5707 5705 5704 5704 5703 5703 5702 5701 5700 5699 5698 5697 5697 5696 5695 5695 5694 5694 5693 5693 5693 5692 5692 5692 5691 5691 5690 5690 5690 5690 5689 5689 5689 5689 5689 5689 5689 5689 5689 5689 5689 5690 5690 5690 5690 5690 5690 5689 5689 5689 5689 5689 5688 5688 5688 5687 5687 5687 5686 5686 5686 5685 5685 5685 5684 5684 5683 5683 5683 5683 5683 5682 5682 5682 5682 5682 5682 5682 5682 5682 5682
5708 5707 5706 5705 5704 5704 5703 5702 5701 5700 5700 5699 5698 5697 5696 5695 5694 5694 5693 5692 5692 5691 5691 5691 5690 5690 5689 5689 5689 5688 5688 5688 5687 5687 5687 5687 5687 5687 5687 5687 5687 5687 5687 5687 5688 5688 5688 5688 5688 5688 5688 5688 5688 5687 5687 5687 5687 5686 5686 5686 5685 5685 5685 5684 5684 5684 5683 5683 5683 5682 5682 5682 5681 5681 5681 5681 5680 5680 5680 5680 5680 5680 5680 5680 5680 5680
5705 5704 5702 5702 5701 5700 5699 5699 5698 5697 5697 5696 5695 5694 5693 5692 5692 5691 5690 5690 5689 5689 5688 5688 5687 5687 5687 5686 5686 5686 5685 5685 5685 5685 5685 5685 5685 5685 5685 5685 5685 5685 5686 5686 5686 5686 5686 5687 5687 5687 5686 5686 5686 5686 5685 5685 5685 5684 5684 5684 5683 5683 5683 5682 5682 5682 5682 5681 5681 5681 5680 5680 5679 5679 5679 5678 5678 5678 5678 5678 5678 5678 5677 5677 5677 5678
5701 5700 5699 5699 5698 5697 5697 5696 5695 5694 5693 5692 5692 5691 5690 5689 5689 5688 5687 5687 5687 5686 5685 5685 5685 5684 5684 5684 5683 5683 5683 5683 5683 5683 5683 5683 5683 5683 5683 5683 5683 5684 5684 5684 5684 5685 5685 5685 5685 5685 5684 5684 5684 5684 5683 5683 5683 5682 5682 5682 5682 5681 5681 5681 5680 5680 5680 5679 5679 5678 5678 5678 5677 5677 5677 5677 5676 5676 5676 5676 5676 5676 5676 5676 5676 5676
5697 5697 5696 5695 5695 5694 5693 5693 5692 5691 5690 5689 5688 5688 5687 5687 5686 5685 5685 5684 5684 5683 5683 5682 5682 5682 5681 5681 5681 5681 5681 5681 5681 5681 5681 5681 5681 5681 5681 5682 5682 5682 5682 5682 5683 5683 5683 5683 5683 5682 5682 5682 5682 5682 5681 5681 5681 5680 5680 5680 5679 5679 5679 5678 5678 5678 5677 5677 5677 5677 5676 5676 5676 5675 5675 5675 5674 5674 5674 5674 5674 5673 5673 5673 5673 5673
5694 5693 5692 5692 5692 5691 5690 5690 5689 5688 5687 5686 5686 5685 5684 5683 5683 5682 5682 5681 5681 5680 5680 5679 5679 5679 5679 5678 5678 5678 5678 5678 5678 5678 5678 5679 5679 5679 5680 5680 5680 5680 5681 5681 5681 5681 5681 5681 5681 5681 5680 5680 5680 5679 5679 5679 5678 5678 5678 5677 5677 5677 5677 5676 5676 5676 5676 5675 5675 5675 5674 5674 5674 5673 5673 5673 5672 5672 5672 5672 5672 5672 5671 5671 5671 5671
5691 5690 5689 5689 5689 5689 5688 5687 5686 5686 5685 5684 5683 5682 5681 5680 5680 5679 5679 5678 5678 5677 5677 5677 5677 5676 5676 5676 5676 5676 5676 5676 5676 5676 5677 5677 5677 5677 5678 5678 5678 5679 5679 5679 5679 5679 5679 5679 5678 5678 5678 5678 5677 5677 5677 5677 5676 5676 5676 5675 5675 5675 5674 5674 5674 5674 5673 5673 5673 5672 5672 5672 5672 5671 5671 5671 5671 5670 5670 5670 5670 5669 5669 5669 5669 5669
5687 5687 5687 5686 5686 5686 5686 5684 5683 5682 5682 5681 5680 5679 5678 5678 5677 5677 5676 5676 5675 5675 5674 5674 5674 5674 5674 5674 5674 5674 5674 5674 5674 5675 5675 5675 5676 5676 5676 5677 5677 5677 5677 5677 5677 5677 5677 5677 5676 5676 5676 5676 5675 5675 5675 5675 5674 5674 5673 5673 5673 5672 5672 5672 5672 5672 5671 5671 5671 5671 5670 5670 5670 5669 5669 5669 5669 5668 5668 5668 5668 5667 5667 5667 5667 5667
5684 5684 5684 5683 5683 5683 5682 5682 5681 5680 5679 5678 5677 5676 5676 5675 5674 5674 5673 5673 5673 5672 5672 5672 5672 5672 5672 5672 5672 5672 5672 5672 5672 5673 5673 5674 5674 5674 5675 5675 5675 5675 5675 5675 5675 5675 5674 5674 5674 5674 5674 5673 5673 5673 5673 5672 5672 5672 5671 5671 5671 5670 5670 5670 5670 5669 5669 5669 5669 5668 5668 5668 5668 5667 5667 5667 5667 5667 5666 5666 5666 5666 5665 5665 5665 5665
5681 5681 5681 5681 5681 5680 5680 5679 5678 5677 5677 5676 5675 5674 5673 5672 5672 5671 5670 5670 5670 5670 5670 5670 5670 5670 5670 5670 5670 5670 5670 5670 5671 5671 5671 5672 5672 5672 5673 5673 5673 5673 5673 5673 5673 5672 5672 5672 5672 5672 5672 5671 5671 5671 5670 5670 5670 5669 5669 5669 5669 5668 5668 5668 5667 5667 5667 5667 5667 5666 5666 5666 5666 5665 5665 5665 5665 5664 5664 5664 5664 5663 5663 5663 5663 5663
5678 5678 5678 5678 5678 5677 5677 5677 5676 5675 5675 5674 5672 5671 5670 5670 5669 5668 5668 5668 5668 5668 5668 5668 5668 5668 5668 5668 5668 5668 5668 5668 5669 5669 5670 5670 5671 5671 5671 5671 5671 5671 5671 5671 5670 5670 5670 5670 5670 5670 5669 5669 5669 5669 5668 5668 5668 5667 5667 5667 5667 5666 5666 5666 5665 5665 5665 5664 5664 5664 5664 5663 5663 5663 5663 5663 5662 5662 5662 5662 5662 5662 5661 5661 5661 5661
5675 5675 5675 5675 5675 5675 5675 5674 5673 5673 5672 5671 5670 5669 5668 5667 5667 5667 5667 5666 5666 5666 5666 5666 5666 5666 5666 5666 5666 5666 5667 5667 5667 5668 5668 5668 5669 5669 5669 5669 5669 5669 5669 5668 5668 5668 5668 5668 5668 5667 5667 5667 5667 5667 5666 5666 5666 5665 5665 5665 5664 5664 5664 5663 5663 5662 5662 5662 5662 5662 5662 5661 5661 5661 5661 5660 5660 5660 5660 5660 5659 5659 5659 5659 5659 5659
5672 5672 5672 5672 5672 5672 5672 5672 5671 5670 5669 5669 5668 5667 5666 5665 5665 5665 5665 5664 5664 5664 5664 5664 5664 5664 5664 5664 5664 5665 5665 5666 5666 5666 5667 5667 5667 5667 5667 5667 5667 5667 5667 5667 5666 5666 5666 5666 5666 5665 5665 5665 5665 5664 5664 5664 5663 5663 5663 5662 5662 5662 5661 5661 5661 5660 5660 5660 5660 5659 5659 5659 5658 5658 5658 5658 5658 5657 5657 5657 5657 5657 5657 5657 5656 5656
5669 5669 5669 5669 5669 5669 5669 5669 5668 5668 5667 5667 5666 5665 5664 5664 5663 5663 5663 5662 5662 5663 5662 5662 5662 5662 5662 5663 5663 5663 5663 5664 5664 5665 5665 5665 5665 5665 5665 5665 5665 5665 5665 5665 5664 5664 5664 5664 5664 5663 5663 5663 5662 5662 5662 5662 5661 5661 5661 5660 5660 5660 5659 5659 5658 5658 5658 5657 5657 5657 5657 5656 5656 5656 5656 5656 5655 5655 5655 5655 5654 5654 5654 5654 5654 5654
5667 5667 5667 5666 5666 5666 5666 5667 5666 5666 5665 5664 5663 5663 5662 5662 5662 5661 5661 5661 5661 5661 5660 5660 5660 5660 5661 5661 5662 5662 5662 5662 5663 5663 5664 5664 5664 5663 5663 5663 5663 5663 5663 5663 5663 5662 5662 5662 5662 5661 5661 5661 5661 5660 5660 5660 5659 5659 5658 5658 5658 5657 5657 5657 5656 5656 5656 5655 5655 5655 5654 5654 5654 5653 5653 5653 5653 5652 5652 5652 5652 5652 5652 5652 5651 5651
5663 5664 5663 5663 5663 5663 5663 5663 5663 5663 5662 5662 5661 5661 5660 5660 5659 5659 5659 5659 5659 5658 5658 5658 5658 5659 5659 5659 5660 5660 5661 5661 5661 5662 5662 5662 5662 5662 5662 5661 5661 5661 5661 5661 5661 5661 5660 5660 5660 5659 5659 5659 5658 5658 5658 5657 5657 5657 5656 5656 5656 5655 5655 5654 5654 5653 5653 5653 5652 5652 5652 5652 5651 5651 5651 5651 5650 5650 5650 5649 5649 5649 5649 5649 5648 5648
5660 5661 5661 5661 5661 5661 5661 5661 5660 5660 5660 5659 5659 5658 5658 5657 5657 5657 5657 5657 5657 5656 5656 5656 5657 5657 5657 5658 5658 5659 5659 5659 5659 5660 5660 5660 5660 5660 5659 5659 5659 5659 5659 5659 5659 5659 5658 5658 5658 5657 5657 5657 5657 5656 5656 5655 5655 5654 5654 5653 5653 5653 5652 5652 5652 5651 5651 5650 5650 5650 5649 5649 5649 5648 5648 5648 5647 5647 5647 5647 5647 5646 5646 5646 5646 5646
5657 5658 5658 5658 5658 5658 5658 5658 5657 5657 5657 5656 5656 5656 5655 5655 5655 5655 5654 5654 5654 5654 5655 5655 5655 5655 5656 5657 5657 5657 5657 5657 5657 5658 5658 5658 5658 5658 5657 5657 5657 5657 5657 5657 5657 5657 5656 5656 5656 5655 5655 5655 5654 5654 5653 5653 5652 5652 5652 5651 5651 5650 5650 5649 5649 5649 5648 5648 5647 5647 5647 5647 5646 5646 5646 5645 5645 5645 5644 5644 5644 5644 5643 5643 5643 5643
5655 5655 5655 5655 5655 5655 5655 5655 5654 5654 5653 5653 5653 5653 5653 5653 5652 5652 5652 5652 5652 5652 5653 5653 5653 5654 5655 5655 5655 5655 5655 5656 5656 5656 5656 5656 5656 5656 5656 5655 5655 5655 5655 5655 5655 5655 5654 5654 5653 5653 5653 5652 5652 5652 5651 5651 5650 5650 5649 5649 5648 5648 5647 5647 5647 5646 5646 5645 5645 5645 5644 5644 5643 5643 5643 5642 5642 5642 5642 5642 5641 5641 5641 5641 5640 5640
5652 5652 5652 5652 5652 5652 5652 5651 5651 5651 5651 5651 5651 5651 5651 5650 5650 5650 5650 5650 5650 5651 5651 5651 5652 5652 5652 5653 5653 5653 5653 5653 5654 5654 5654 5654 5654 5654 5653 5653 5653 5653 5653 5653 5653 5652 5652 5652 5652 5651 5651 5650 5650 5649 5649 5648 5648 5647 5647 5646 5646 5645 5645 5645 5644 5644 5643 5643 5642 5642 5642 5641 5641 5641 5640 5640 5640 5639 5639 5639 5639 5638 5638 5638 5637 5637
5649 5649 5649 5649 5649 5648 5648 5648 5647 5647 5647 5647 5647 5647 5647 5647 5647 5647 5647 5648 5648 5649 5649 5650 5650 5650 5651 5651 5651 5652 5652 5652 5652 5652 5652 5652 5652 5652 5652 5652 5651 5652 5652 5651 5651 5651 5650 5650 5649 5649 5649 5648 5647 5647 5647 5646 5646 5645 5644 5644 5643 5643 5642 5642 5642 5641 5641 5640 5640 5640 5639 5639 5638 5638 5638 5637 5637 5637 5637 5636 5636 5636 5635 5635 5635 5635
5646 5646 5646 5646 5646 5645 5645 5644 5644 5644 5645 5645 5645 5645 5645 5645 5645 5645 5645 5646 5646 5647 5647 5648 5648 5648 5649 5649 5649 5650 5650 5650 5650 5650 5650 5650 5651 5650 5650 5650 5650 5650 5650 5649 5649 5648 5648 5648 5647 5647 5647 5646 5646 5645 5644 5644 5643 5643 5642 5642 5641 5641 5640 5640 5639 5639 5638 5638 5637 5637 5637 5636 5636 5636 5635 5635 5635 5634 5634 5634 5633 5633 5633 5632 5632 5632
5643 5643 5643 5643 5642 5642 5642 5641 5641 5642 5642 5642 5642 5642 5642 5642 5642 5642 5643 5644 5644 5645 5645 5646 5647 5647 5647 5647 5648 5648 5648 5648 5648 5648 5649 5649 5649 5649 5648 5648 5648 5648 5648 5647 5647 5647 5646 5646 5645 5645 5644 5644 5643 5643 5642 5642 5641 5641 5640 5639 5639 5638 5638 5637 5637 5637 5636 5636 5635 5635 5634 5634 5633 5633 5633 5632 5632 5632 5632 5631 5631 5631 5630 5630 5630 5629
5640 5640 5640 5640 5639 5639 5638 5638 5639 5639 5639 5639 5639 5639 5639 5639 5640 5641 5641 5642 5642 5643 5644 5644 5644 5645 5645 5646 5646 5646 5646 5646 5646 5647 5647 5647 5647 5647 5647 5646 5646 5646 5646 5645 5645 5645 5644 5644 5643 5643 5642 5642 5641 5641 5640 5639 5639 5638 5638 5637 5637 5636 5636 5635 5635 5634 5634 5633 5633 5632 5632 5632 5631 5631 5631 5630 5630 5629 5629 5629 5628 5628 5627 5627 5627 5627
5637 5637 5637 5637 5636 5636 5636 5636 5636 5636 5636 5636 5636 5637 5637 5637 5638 5639 5640 5640 5641 5642 5642 5642 5642 5643 5643 5644 5644 5644 5645 5644 5645 5645 5645 5645 5645 5645 5645 5644 5644 5644 5644 5643 5643 5642 5642 5642 5641 5641 5640 5640 5639 5638 5638 5637 5637 5636 5636 5635 5634 5634 5633 5633 5632 5632 5631 5631 5630 5630 5629 5629 5629 5628 5628 5627 5627 5627 5627 5626 5626 5625 5625 5624 5624 5624
5634 5634 5634 5634 5634 5634 5634 5634 5634 5634 5634 5634 5634 5634 5635 5636 5636 5637 5638 5638 5639 5640 5640 5640 5641 5641 5641 5642 5642 5642 5643 5642 5642 5642 5643 5643 5643 5643 5643 5642 5642 5642 5642 5642 5641 5641 5640 5640 5639 5638 5638 5637 5637 5636 5636 5635 5635 5634 5633 5633 5632 5632 5631 5631 5630 5629 5629 5628 5628 5627 5627 5627 5626 5626 5625 5625 5625 5624 5624 5623 5623 5622 5622 5622 5621 5621
5631 5631 5631 5631 5631 5632 5632 5631 5631 5631 5631 5632 5632 5632 5633 5634 5635 5635 5636 5637 5637 5638 5638 5638 5639 5639 5639 5640 5640 5641 5641 5641 5641 5641 5641 5641 5641 5641 5641 5640 5640 5640 5640 5640 5639 5639 5638 5637 5637 5636 5636 5635 5635 5634 5633 5633 5632 5632 5631 5630 5630 5629 5629 5628 5627 5627 5627 5626 5626 5625 5624 5624 5623 5623 5623 5622 5622 5622 5621 5621 5620 5620 5619 5619 5618 5618
5628 5628 5628 5629 5629 5629 5629 5629 5629 5629 5629 5630 5630 5631 5632 5632 5633 5633 5634 5635 5635 5636 5636 5637 5637 5637 5638 5638 5638 5638 5639 5639 5639 5638 5639 5639 5639 5639 5639 5638 5638 5638 5637 5637 5637 5637 5636 5636 5635 5634 5633 5633 5632 5632 5631 5630 5630 5629 5628 5628 5627 5627 5626 5626 5625 5625 5624 5623 5623 5622 5622 5621 5621 5620 5620 5620 5619 5619 5618 5618 5617 5617 5616 5616 5615 5615
5626 5626 5626 5626 5626 5627 5626 5627 5627 5627 5627 5628 5629 5629 5630 5631 5631 5632 5632 5633 5634 5634 5635 5635 5635 5636 5636 5636 5636 5637 5637 5637 5637 5637 5637 5637 5637 5637 5637 5637 5636 5636 5635 5635 5634 5634 5634 5633 5633 5632 5631 5630 5630 5629 5629 5628 5627 5627 5626 5625 5625 5624 5624 5623 5622 5622 5622 5621 5620 5620 5619 5619 5618 5618 5617 5617 5616 5616 5615 5615 5614 5614 5613 5613 5612 5612
5623 5623 5624 5624 5624 5624 5624 5624 5624 5625 5626 5626 5627 5627 5628 5629 5630 5630 5631 5631 5632 5632 5633 5633 5634 5634 5634 5634 5635 5635 5635 5635 5635 5635 5635 5635 5635 5635 5635 5634 5634 5634 5633 5633 5632 5632 5631 5631 5631 5630 5629 5628 5627 5627 5626 5625 5625 5624 5623 5623 5622 5622 5621 5621 5620 5619 5619 5618 5617 5617 5617 5616 5615 5615 5614 5614 5613 5613 5612 5612 5612 5611 5610 5610 5609 5609
5621 5621 5621 5621 5621 5621 5622 5622 5622 5623 5624 5625 5625 5626 5627 5627 5628 5628 5629 5629 5630 5630 5631 5632 5632 5632 5632 5633 5633 5633 5633 5633 5633 5633 5633 5633 5633 5633 5632 5632 5632 5632 5631 5630 5630 5629 5629 5628 5628 5627 5627 5626 5625 5624 5623 5623 5622 5621 5621 5620 5619 5619 5618 5618 5617 5616 5616 5615 5615 5614 5613 5613 5612 5612 5612 5611 5611 5610 5610 5609 5609 5608 5607 5607 5607 5606
5618 5619 5619 5619 5619 5619 5620 5620 5621 5621 5622 5623 5624 5624 5625 5625 5626 5626 5627 5627 5628 5628 5629 5629 5630 5631 5631 5631 5631 5631 5631 5631 5631 5631 5631 5631 5631 5631 5630 5630 5630 5629 5629 5628 5628 5627 5627 5626 5625 5625 5624 5623 5622 5621 5621 5620 5619 5618 5618 5617 5616 5616 5615 5615 5614 5613 5613 5612 5612 5611 5610 5610 5609 5609 5609 5608 5608 5607 5607 5606 5606 5605 5605 5604 5603 5603
5617 5617 5617 5617 5617 5617 5618 5618 5619 5620 5621 5621 5622 5622 5623 5623 5624 5624 5625 5625 5626 5626 5627 5627 5628 5628 5629 5629 5629 5629 5629 5629 5629 5629 5628 5628 5628 5628 5628 5628 5627 5627 5626 5626 5625 5625 5624 5623 5623 5622 5621 5621 5620 5619 5618 5617 5616 5616 5615 5614 5613 5613 5612 5612 5611 5610 5610 5609 5608 5608 5607 5607 5606 5606 5605 5605 5605 5604 5604 5603 5603 5602 5602 5601 5601 5600
5614 5614 5615 5615 5615 5616 5616 5617 5617 5618 5619 5619 5620 5621 5621 5622 5622 5622 5623 5623 5624 5625 5625 5625 5626 5626 5626 5627 5627 5627 5627 5627 5627 5626 5626 5626 5626 5626 5625 5625 5625 5624 5623 5623 5622 5622 5621 5621 5620 5619 5619 5618 5617 5616 5615 5614 5613 5612 5612 5611 5611 5610 5609 5608 5608 5607 5606 5606 5605 5604 5604 5603 5603 5602 5602 5602 5601 5601 5600 5600 5599 5599 5598 5598 5597 5597
5612 5612 5612 5612 5613 5614 5614 5615 5616 5616 5617 5617 5618 5619 5619 5620 5620 5621 5621 5622 5622 5622 5623 5623 5624 5624 5624 5624 5624 5624 5624 5624 5624 5624 5624 5623 5623 5623 5622 5622 5622 5621 5621 5620 5620 5619 5618 5617 5617 5617 5616 5615 5614 5613 5612 5611 5610 5610 5609 5608 5607 5607 5606 5606 5605 5604 5603 5602 5602 5601 5601 5600 5599 5599 5599 5598 5598 5597 5597 5597 5596 5596 5595 5595 5594 5594
5609 5610 5610 5611 5611 5612 5612 5613 5614 5614 5615 5616 5616 5617 5617 5618 5618 5619 5619 5620 5620 5621 5621 5621 5622 5622 5622 5622 5622 5622 5622 5622 5622 5622 5621 5621 5621 5620 5620 5619 5619 5618 5618 5617 5617 5616 5616 5615 5614 5613 5613 5612 5612 5611 5610 5608 5607 5607 5606 5605 5604 5604 5603 5602 5602 5601 5600 5599 5598 5597 5597 5597 5596 5595 5595 5595 5594 5594 5593 5593 5592 5592 5592 5591 5591 5590
5607 5607 5608 5609 5609 5610 5611 5612 5612 5612 5613 5614 5614 5615 5615 5616 5617 5617 5617 5618 5618 5619 5619 5619 5619 5620 5620 5620 5620 5620 5620 5619 5619 5619 5619 5618 5618 5617 5617 5617 5616 5616 5615 5614 5613 5613 5612 5612 5611 5610 5610 5609 5608 5608 5607 5606 5605 5604 5603 5602 5601 5601 5600 5599 5598 5597 5597 5596 5595 5594 5593 5593 5592 5592 5591 5591 5590 5590 5589 5589 5588 5588 5587 5587 5587 5586
5605 5606 5606 5607 5607 5608 5609 5609 5610 5611 5611 5612 5612 5613 5613 5614 5614 5615 5615 5616 5616 5617 5617 5617 5617 5617 5617 5617 5617 5617 5617 5617 5617 5617 5616 5616 5615 5615 5614 5614 5613 5612 5612 5611 5611 5610 5609 5609 5608 5607 5607 5606 5605 5604 5604 5603 5602 5601 5600 5599 5598 5597 5597 5596 5595 5594 5593 5592 5591 5590 5590 5589 5588 5588 5587 5587 5586 5586 5585 5585 5584 5584 5583 5583 5583 5582
5603 5604 5605 5605 5606 5606 5607 5607 5608 5609 5609 5610 5610 5611 5612 5612 5612 5613 5613 5614 5614 5614 5615 5615 5615 5615 5615 5615 5615 5615 5615 5614 5614 5614 5613 5613 5612 5612 5611 5611 5610 5609 5609 5608 5607 5607 5606 5606 5605 5604 5604 5603 5602 5601 5601 5600 5599 5598 5597 5596 5595 5594 5593 5592 5591 5590 5589 5588 5587 5587 5586 5585 5584 5584 5583 5583 5582 5582 5582 5581 5580 5580 5579 5579 5578 5578
5602 5602 5603 5603 5604 5604 5605 5606 5606 5607 5607 5608 5608 5609 5609 5610 5610 5611 5611 5612 5612 5612 5612 5612 5612 5613 5613 5613 5612 5612 5612 5612 5611 5611 5611 5610 5610 5609 5608 5608 5607 5606 5606 5605 5604 5604 5603 5602 5602 5601 5600 5599 5598 5597 5597 5597 5596 5595 5593 5592 5591 5590 5589 5588 5587 5586 5585 5584 5584 5583 5582 5581 5581 5580 5579 5579 5578 5578 5577 5577 5576 5576 5575 5575 5574 5574
5600 5600 5601 5602 5602 5602 5603 5604 5604 5605 5606 5606 5607 5607 5607 5608 5608 5609 5609 5610 5610 5610 5610 5610 5610 5610 5610 5610 5610 5610 5609 5609 5608 5608 5608 5607 5607 5606 5606 5605 5604 5603 5602 5602 5601 5600 5600 5599 5598 5597 5596 5595 5595 5594 5593 5592 5592 5591 5590 5589 5588 5587 5586 5584 5583 5582 5581 5580 5580 5579 5578 5577 5576 5576 5575 5575 5574 5574 5573 5573 5572 5572 5571 5570 5570 5569
5598 5598 5599 5600 5600 5601 5602 5602 5602 5603 5604 5604 5605 5605 5605 5606 5606 5607 5607 5607 5607 5607 5608 5608 5608 5608 5608 5608 5608 5607 5607 5606 5606 5606 5605 5604 5604 5603 5602 5602 5601 5600 5599 5598 5597 5597 5596 5595 5595 5594 5592 5592 5591 5590 5589 5588 5588 5587 5586 5585 5584 5583 5582 5580 5579 5578 5577 5576 5576 5575 5574 5573 5572 5572 5571 5571 5570 5570 5569 5568 5568 5567 5567 5566 5566 5565
5596 5597 5597 5598 5598 5599 5600 5600 5601 5601 5602 5602 5602 5603 5603 5604 5604 5604 5605 5605 5605 5605 5605 5605 5605 5606 5606 5606 5606 5605 5604 5604 5603 5603 5602 5602 5601 5600 5599 5598 5598 5597 5596 5595 5594 5593 5592 5592 5591 5590 5589 5588 5587 5586 5585 5584 5583 5583 5582 5581 5580 5578 5577 5576 5575 5574 5573 5572 5571 5570 5569 5569 5568 5567 5567 5567 5566 5566 5565 5564 5564 5563 5562 5562 5562 5561
5594 5595 5596 5596 5597 5597 5598 5598 5599 5599 5600 5600 5601 5601 5601 5602 5602 5602 5602 5603 5603 5603 5603 5603 5603 5603 5603 5603 5603 5602 5602 5602 5601 5600 5599 5599 5598 5597 5596 5595 5595 5594 5592 5592 5591 5590 5589 5588 5587 5586 5585 5584 5583 5582 5581 5580 5579 5578 5578 5577 5576 5574 5573 5572 5571 5570 5569 5568 5567 5566 5565 5564 5564 5563 5563 5562 5562 5562 5561 5561 5560 5559 5558 5558 5557 5557
5593 5593 5594 5595 5595 5596 5596 5597 5597 5597 5598 5598 5599 5599 5599 5600 5600 5600 5601 5601 5601 5601 5601 5601 5601 5601 5600 5600 5600 5600 5599 5599 5598 5597 5597 5596 5595 5594 5593 5592 5591 5591 5589 5588 5587 5587 5585 5584 5583 5582 5581 5580 5579 5577 5577 5576 5575 5574 5573 5572 5571 5570 5569 5567 5566 5566 5565 5564 5563 5562 5561 5561 5560 5560 5559 5559 5558 5557 5557 5557 5556 5555 5555 5554 5553 5553
5591 5592 5592 5593 5594 5594 5595 5595 5596 5596 5597 5597 5597 5597 5597 5598 5598 5598 5598 5598 5598 5598 5598 5598 5598 5598 5598 5597 5597 5597 5597 5596 5595 5595 5594 5593 5592 5591 5590 5589 5588 5587 5586 5585 5584 5583 5582 5581 5579 5578 5577 5576 5574 5573 5572 5572 5571 5570 5569 5568 5567 5566 5564 5563 5562 5561 5560 5559 5558 5558 5557 5557 5556 5556 5555 5555 5554 5554 5553 5552 5552 5552 5551 5550 5549 5549
5589 5590 5591 5591 5592 5592 5593 5593 5594 5594 5594 5595 5595 5595 5595 5596 5596 5596 5596 5596 5596 5596 5596 5596 5596 5595 5595 5595 5594 5594 5593 5593 5592 5592 5591 5590 5589 5587 5586 5585 5584 5584 5583 5582 5581 5580 5578 5577 5576 5575 5573 5572 5571 5569 5568 5567 5566 5565 5564 5563 5562 5561 5560 5559 5558 5557 5556 5555 5554 5554 5553 5553 5552 5552 5552 5551 5551 5550 5549 5548 5548 5547 5547 5546 5545 5545
5587 5588 5589 5589 5590 5591 5591 5591 5592 5592 5592 5593 5593 5593 5593 5593 5593 5593 5593 5593 5593 5593 5593 5593 5593 5592 5592 5592 5592 5591 5591 5590 5589 5589 5588 5587 5586 5584 5583 5582 5581 5580 5579 5578 5577 5576 5575 5573 5572 5571 5570 5568 5567 5566 5564 5563 5562 5561 5560 5559 5558 5557 5556 5555 5554 5553 5552 5551 5550 5550 5549 5549 5548 5548 5548 5547 5547 5546 5545 5544 5543 5543 5542 5542 5541 5541
5586 5586 5587 5587 5588 5588 5589 5589 5589 5590 5590 5590 5591 5591 5591 5591 5591 5591 5591 5591 5591 5591 5591 5590 5590 5589 5589 5589 5588 5588 5587 5587 5586 5586 5585 5584 5582 5581 5580 5579 5578 5577 5576 5574 5573 5572 5572 5570 5568 5567 5566 5565 5564 5563 5561 5559 5558 5557 5557 5555 5554 5553 5552 5551 5550 5549 5548 5547 5547 5546 5545 5545 5544 5544 5544 5543 5542 5542 5541 5540 5539 5538 5538 5538 5537 5537